This is the latest recevied weather packets stored in our database for station/object VU3IZK-14. If no packets are shown the sender has not sent any weather packets the latest 1 day(s).
| Time | Temp. | Humidity | Pressure | Rain* | Wind** | Luminosity | Snow |
|---|---|---|---|---|---|---|---|
| 1778058385 | 39.44° C | 29% | - | - | 0.45 m/s, 27° | - | - |
| 1778057483 | 39.44° C | 29% | - | - | 0.45 m/s, 9° | - | - |
| 1778055683 | 38.89° C | 18% | - | - | 0.45 m/s, 164° | - | - |
| 1778054784 | 38.33° C | 19% | - | - | 0.45 m/s, 149° | - | - |
| 1778053883 | 38.89° C | 21% | - | - | 0.45 m/s, 6° | - | - |
| 1778052983 | 38.33° C | 21% | - | - | 0.45 m/s, 115° | - | - |
| 1778052083 | 38.33° C | 21% | - | - | 0.45 m/s, 54° | - | - |
| 1778051184 | 38.33° C | 22% | - | - | 0.45 m/s, 65° | - | - |
| 1778050284 | 37.78° C | 11% | - | - | 0.45 m/s, 28° | - | - |
| 1778049383 | 36.67° C | 17% | - | - | 0 m/s | - | - |
| 1778048484 | 36.67° C | 19% | - | - | 0.45 m/s, 256° | - | - |
| 1778047584 | 36.11° C | 99% | - | - | 0 m/s | - | - |
| 1778046684 | 36.11° C | 99% | - | - | 0 m/s | - | - |
| 1778045784 | 35.56° C | 24% | - | - | 0 m/s | - | - |
| 1778044883 | 33.89° C | 27% | - | - | 0 m/s | - | - |
| 1778043984 | 33.89° C | 27% | - | - | 0 m/s | - | - |
| 1778043084 | 33.89° C | 27% | - | - | 0.45 m/s, 7° | - | - |
| 1778042184 | 32.78° C | 32% | - | - | 0.45 m/s, 168° | - | - |
| 1778041283 | 31.67° C | 35% | - | - | 0.45 m/s, 34° | - | - |
| 1778040384 | 31.67° C | 35% | - | - | 0 m/s | - | - |
| 1778039484 | 30° C | 38% | - | - | 0.45 m/s, 19° | - | - |
| 1778038583 | 30° C | 40% | - | - | 0 m/s | - | - |
| 1778037683 | 28.89° C | 42% | - | - | 0 m/s | - | - |
| 1778036784 | 28.33° C | 45% | - | - | 0 m/s | - | - |
| 1778035884 | 28.33° C | 46% | - | - | 0.45 m/s, 341° | - | - |
* Rain since midnight (hover to see other rain measurements)
** Current wind speed in m/s (hover to see current wind gust speed)